| time (UTC) | temp F | wind direction | speed MPH | gust MPH | rain 1hr in | rain 24hr in | rain mn in | humidity % | barometer mb |
| 20260906223102 | 85 | 149 | 2.0 | 7.0 | 0.00 | 0.10 | 0.10 | 77 | 1011.7 |
| 20260906221602 | 83 | 75 | 2.0 | 5.0 | 0.00 | 0.10 | 0.10 | 79 | 1011.7 |
| 20260906215307 | 82 | 93 | 0.0 | 5.0 | 0.00 | 0.10 | 0.10 | 82 | 1012.3 |
| 20260906213102 | 81 | 0 | 2.0 | 5.0 | 0.00 | 0.10 | 0.10 | 82 | 1012.6 |
| 20260906211602 | 81 | 8 | 3.0 | 5.0 | 0.00 | 0.10 | 0.10 | 83 | 1012.7 |
| 20260906205306 | 82 | 0 | 1.0 | 13.0 | 0.00 | 0.10 | 0.10 | 81 | 1013.2 |
| 20260906203102 | 83 | 257 | 0.0 | 3.0 | 0.00 | 0.10 | 0.10 | 76 | 1013.5 |
| 20260906201603 | 83 | 257 | 0.0 | 3.0 | 0.00 | 0.10 | 0.10 | 77 | 1013.3 |
| 20260906200103 | 83 | 257 | 0.0 | 5.0 | 0.00 | 0.10 | 0.10 | 76 | 1013.0 |
| 20260906194602 | 85 | 255 | 2.0 | 11.0 | 0.10 | 0.10 | 0.10 | 74 | 1013.1 |
| 20260906193705 | 81 | 231 | 6.0 | 14.0 | 0.10 | 0.10 | 0.10 | 86 | 1013.2 |
| 20260906193213 | 83 | 216 | 3.0 | 13.0 | 0.10 | 0.10 | 0.10 | 81 | 1013.0 |
| 20260906185310 | 86 | 254 | 5.0 | 16.0 | 0.00 | 0.00 | 0.00 | 71 | 1013.6 |
| 20260906183102 | 89 | 140 | 11.0 | 25.0 | 0.00 | 0.00 | 0.00 | 64 | 1013.5 |
| 20260906181602 | 92 | 110 | 2.0 | 9.0 | 0.00 | 0.00 | 0.00 | 59 | 1013.3 |
| 20260906175223 | 91 | 123 | 2.0 | 7.0 | 0.00 | 0.00 | 0.00 | 61 | 1013.7 |
| 20260906174732 | 92 | 141 | 4.0 | 7.0 | 0.00 | 0.00 | 0.00 | 59 | 1013.4 |
| 20260906171602 | 90 | 93 | 4.0 | 7.0 | 0.00 | 0.00 | 0.00 | 61 | 1014.0 |
| 20260906170103 | 90 | 130 | 3.0 | 5.0 | 0.00 | 0.00 | 0.00 | 63 | 1014.2 |
| 20260906164603 | 89 | 7 | 2.0 | 9.0 | 0.00 | 0.00 | 0.00 | 63 | 1014.1 |
| 20260906163104 | 88 | 350 | 2.0 | 11.0 | 0.00 | 0.00 | 0.00 | 67 | 1014.2 |
| 20260906161602 | 88 | 357 | 4.0 | 9.0 | 0.00 | 0.00 | 0.00 | 70 | 1014.4 |
| 20260906160105 | 87 | 0 | 2.0 | 7.0 | 0.00 | 0.00 | 0.00 | 77 | 1014.3 |
| 20260906154602 | 85 | 0 | 1.0 | 7.0 | 0.00 | 0.00 | 0.00 | 79 | 1014.6 |
| 20260906153105 | 85 | 0 | 1.0 | 3.0 | 0.00 | 0.00 | 0.00 | 79 | 1014.5 |
| 20260906151602 | 85 | 0 | 2.0 | 5.0 | 0.00 | 0.00 | 0.00 | 80 | 1014.4 |
| 20260906150756 | 83 | 134 | 1.0 | 3.0 | 0.00 | 0.00 | 0.00 | 83 | 1014.5 |
| 20260906144601 | 82 | 134 | 1.0 | 5.0 | 0.00 | 0.00 | 0.00 | 84 | 1014.4 |
| 20260906143105 | 81 | 134 | 2.0 | 5.0 | 0.00 | 0.00 | 0.00 | 85 | 1014.4 |
| 20260906141602 | 80 | 134 | 1.0 | 5.0 | 0.00 | 0.00 | 0.00 | 87 | 1014.5 |
| 20260906134602 | 79 | 131 | 2.0 | 5.0 | 0.00 | 0.00 | 0.00 | 89 | 1014.3 |
| 20260906133104 | 78 | 133 | 2.0 | 5.0 | 0.00 | 0.00 | 0.00 | 90 | 1014.1 |
| 20260906131602 | 78 | 133 | 0.0 | 3.0 | 0.00 | 0.00 | 0.00 | 90 | 1014.0 |
| 20260906130755 | 77 | 133 | 1.0 | 2.0 | 0.00 | 0.00 | 0.00 | 90 | 1013.8 |
| 20260906124601 | 76 | 133 | 0.0 | 2.0 | 0.00 | 0.00 | 0.00 | 91 | 1013.6 |
| 20260906123814 | 76 | 133 | 0.0 | 2.0 | 0.00 | 0.00 | 0.00 | 90 | 1013.3 |
| 20260906121603 | 76 | 133 | 0.0 | 2.0 | 0.00 | 0.00 | 0.00 | 90 | 1013.2 |
| 20260906120104 | 76 | 133 | 1.0 | 3.0 | 0.00 | 0.00 | 0.00 | 90 | 1013.2 |
| 20260906114603 | 76 | 133 | 0.0 | 2.0 | 0.00 | 0.00 | 0.00 | 90 | 1013.3 |
| 20260906113802 | 76 | 133 | 0.0 | 2.0 | 0.00 | 0.00 | 0.00 | 90 | 1012.9 |
| 20260906111602 | 76 | 131 | 0.0 | 2.0 | 0.00 | 0.00 | 0.00 | 90 | 1012.8 |
| 20260906110103 | 76 | 131 | 0.0 | 2.0 | 0.00 | 0.00 | 0.00 | 90 | 1012.5 |
| 20260906104602 | 76 | 133 | 0.0 | 2.0 | 0.00 | 0.00 | 0.00 | 90 | 1012.4 |
| 20260906103104 | 76 | 133 | 1.0 | 2.0 | 0.00 | 0.00 | 0.00 | 90 | 1012.4 |
| 20260906101602 | 76 | 131 | 0.0 | 2.0 | 0.00 | 0.00 | 0.00 | 90 | 1012.3 |
| 20260906100104 | 76 | 131 | 0.0 | 0.0 | 0.00 | 0.00 | 0.00 | 90 | 1012.3 |
| 20260906094602 | 76 | 133 | 0.0 | 0.0 | 0.00 | 0.00 | 0.00 | 90 | 1012.3 |
| 20260906094504 | 77 | 131 | 0.0 | 2.0 | 0.00 | 0.00 | 0.00 | 90 | 1012.3 |
| 20260906091602 | 77 | 133 | 0.0 | 2.0 | 0.00 | 0.00 | 0.00 | 89 | 1012.3 |
| 20260906090103 | 77 | 133 | 0.0 | 3.0 | 0.00 | 0.00 | 0.00 | 89 | 1012.1 |
| 20260906084602 | 77 | 133 | 0.0 | 2.0 | 0.00 | 0.00 | 0.00 | 89 | 1012.0 |
| 20260906083105 | 77 | 133 | 0.0 | 5.0 | 0.00 | 0.00 | 0.00 | 89 | 1012.0 |
| 20260906081602 | 77 | 133 | 0.0 | 2.0 | 0.00 | 0.00 | 0.00 | 89 | 1012.1 |
| 20260906080816 | 77 | 133 | 0.0 | 3.0 | 0.00 | 0.00 | 0.00 | 89 | 1012.3 |
| 20260906075258 | 77 | 133 | 0.0 | 2.0 | 0.00 | 0.00 | 0.00 | 89 | 1012.5 |
| 20260906073103 | 77 | 133 | 0.0 | 2.0 | 0.00 | 0.00 | 0.00 | 89 | 1012.5 |
| 20260906072251 | 77 | 133 | 0.0 | 2.0 | 0.00 | 0.00 | 0.00 | 88 | 1012.5 |
| 20260906070103 | 77 | 133 | 1.0 | 2.0 | 0.00 | 0.00 | 0.00 | 88 | 1012.7 |
| 20260906065301 | 77 | 133 | 0.0 | 0.0 | 0.00 | 0.00 | 0.00 | 88 | 1012.5 |
| 20260906063105 | 77 | 133 | 0.0 | 2.0 | 0.00 | 0.00 | 0.00 | 88 | 1012.6 |
| 20260906061602 | 78 | 133 | 0.0 | 2.0 | 0.00 | 0.00 | 0.00 | 88 | 1012.4 |
| 20260906060103 | 77 | 133 | 0.0 | 3.0 | 0.00 | 0.00 | 0.00 | 88 | 1012.6 |
| 20260906054603 | 77 | 133 | 1.0 | 3.0 | 0.00 | 0.00 | 0.00 | 88 | 1012.6 |
| 20260906053104 | 77 | 133 | 0.0 | 2.0 | 0.00 | 0.00 | 0.00 | 88 | 1012.6 |
| 20260906051602 | 77 | 133 | 0.0 | 2.0 | 0.00 | 0.00 | 0.00 | 88 | 1012.6 |
| 20260906050105 | 77 | 133 | 0.0 | 2.0 | 0.00 | 0.00 | 0.00 | 88 | 1012.5 |
| 20260906045305 | 77 | 133 | 0.0 | 3.0 | 0.00 | 0.00 | 0.00 | 88 | 1012.5 |
| 20260906043104 | 77 | 131 | 1.0 | 2.0 | 0.00 | 0.00 | 0.00 | 88 | 1012.6 |
| 20260906041602 | 78 | 131 | 1.0 | 5.0 | 0.00 | 0.00 | 0.00 | 88 | 1012.6 |
| 20260906040603 | 78 | 123 | 0.0 | 2.0 | 0.00 | 0.00 | 0.00 | 88 | 1012.7 |
| 20260906040132 | 78 | 131 | 2.0 | 5.0 | 0.00 | 0.00 | 0.00 | 88 | 1012.7 |
| 20260906034722 | 78 | 123 | 1.0 | 2.0 | 0.00 | 0.00 | 0.00 | 88 | 1012.6 |
| 20260906031602 | 78 | 123 | 0.0 | 2.0 | 0.00 | 0.00 | 0.00 | 88 | 1012.8 |
| 20260906030104 | 78 | 123 | 0.0 | 2.0 | 0.00 | 0.00 | 0.00 | 88 | 1012.6 |
| 20260906024604 | 78 | 123 | 0.0 | 2.0 | 0.00 | 0.00 | 0.00 | 88 | 1012.4 |
| 20260906023103 | 78 | 123 | 1.0 | 3.0 | 0.00 | 0.00 | 0.00 | 88 | 1012.3 |
| 20260906021602 | 78 | 123 | 0.0 | 2.0 | 0.00 | 0.00 | 0.00 | 88 | 1012.1 |
| 20260906020104 | 78 | 123 | 0.0 | 3.0 | 0.00 | 0.00 | 0.00 | 87 | 1012.1 |
| 20260906014602 | 78 | 123 | 2.0 | 5.0 | 0.00 | 0.00 | 0.00 | 87 | 1012.1 |
| 20260906013104 | 78 | 123 | 1.0 | 3.0 | 0.00 | 0.00 | 0.00 | 87 | 1011.7 |
| 20260906012256 | 79 | 123 | 1.0 | 3.0 | 0.00 | 0.00 | 0.00 | 86 | 1011.5 |
| 20260906010104 | 79 | 123 | 2.0 | 5.0 | 0.00 | 0.00 | 0.00 | 85 | 1011.4 |
| 20260906005255 | 79 | 123 | 2.0 | 5.0 | 0.00 | 0.00 | 0.00 | 85 | 1011.7 |
| 20260906003104 | 79 | 123 | 2.0 | 3.0 | 0.00 | 0.00 | 0.00 | 84 | 1011.8 |
| 20260906002258 | 79 | 123 | 2.0 | 5.0 | 0.00 | 0.00 | 0.00 | 83 | 1012.0 |
| 20260906000104 | 79 | 123 | 2.0 | 5.0 | 0.00 | 0.00 | 0.00 | 82 | 1012.2 |
| 20260905235258 | 80 | 127 | 1.0 | 7.0 | 0.00 | 0.00 | 0.00 | 81 | 1012.5 |
| 20260905233104 | 81 | 111 | 3.0 | 9.0 | 0.00 | 0.00 | 0.00 | 80 | 1012.4 |
| 20260905231602 | 81 | 86 | 3.0 | 5.0 | 0.00 | 0.00 | 0.00 | 78 | 1012.3 |
| 20260905230103 | 81 | 86 | 2.0 | 5.0 | 0.00 | 0.00 | 0.00 | 75 | 1012.3 |
| 20260905224602 | 81 | 106 | 3.0 | 3.0 | 0.00 | 0.00 | 0.00 | 75 | 1012.1 |